When you browse on this site, cookies collect data to enhance your experience and personalize the content and advertising you see.
Visit our Privacy Policy to learn more. By continuing to use the site, you agree to this use of cookies and data.
  • In Portugal
  • List of Countries
  • For 7 days
  • Water Temperature
  • Satellite Maps
  • Weather Map
  • Weather Widgets
  • user-avatar
    Login

    Hourly Weather Tyczewo

    Today, 24 March, Sunday

    Time Temperature Precipitation Wind Pressure Humidity
    00:00 +4°C° 0 mm 3 mps 763 mmHg 83%
    01:00 +4°C° 0 mm 2 mps 763 mmHg 84%
    02:00 +4°C° 0 mm 2 mps 763 mmHg 84%
    03:00 +4°C° 0 mm 2 mps 763 mmHg 83%
    04:00 +3°C° 0 mm 3 mps 763 mmHg 82%
    05:00 +3°C° 0 mm 3 mps 763 mmHg 82%
    06:00 +3°C° 0 mm 3 mps 763 mmHg 82%
    07:00 +3°C° 0 mm 3 mps 763 mmHg 82%
    08:00 +4°C° 0 mm 3 mps 763 mmHg 77%
    09:00 +5°C° 0 mm 3 mps 762 mmHg 72%
    10:00 +7°C° 0 mm 3 mps 762 mmHg 67%
    11:00 +7°C° 0 mm 3 mps 762 mmHg 64%
    12:00 +8°C° 0 mm 3 mps 761 mmHg 61%
    13:00 +8°C° 0 mm 3 mps 761 mmHg 57%
    14:00 +8°C° 0 mm 3 mps 760 mmHg 58%
    15:00 +8°C° 0 mm 3 mps 760 mmHg 58%
    16:00 +8°C° 0 mm 3 mps 759 mmHg 59%
    17:00 +5°C° 0 mm 3 mps 759 mmHg 64%
    18:00 +5°C° 0 mm 2 mps 758 mmHg 70%
    19:00 +4°C° 0 mm 2 mps 758 mmHg 75%
    20:00 +3°C° 0 mm 2 mps 757 mmHg 77%
    21:00 +3°C° 0 mm 2 mps 757 mmHg 78%
    22:00 +3°C° 0 mm 2 mps 756 mmHg 79%
    23:00 +3°C° 0 mm 2 mps 756 mmHg 79%

    Tomorrow, 25 March, Monday

    Time Temperature Precipitation Wind Pressure Humidity
    00:00 +3°C° 0 mm 2 mps 755 mmHg 79%
    01:00 +1°C° 0 mm 3 mps 755 mmHg 79%
    02:00 +1°C° 0 mm 3 mps 754 mmHg 80%
    03:00 +1°C° 0 mm 3 mps 753 mmHg 82%
    04:00 +1°C° 0 mm 3 mps 752 mmHg 83%
    05:00 +1°C° 0 mm 3 mps 752 mmHg 82%
    06:00 0°C° 0 mm 4 mps 751 mmHg 81%
    07:00 0°C° 0 mm 4 mps 751 mmHg 80%
    08:00 +1°C° 0.4 mm 4 mps 751 mmHg 81%
    09:00 +1°C° 0.4 mm 4 mps 751 mmHg 81%
    10:00 +3°C° 0.4 mm 4 mps 751 mmHg 81%
    11:00 +2°C° 0.2 mm 5 mps 751 mmHg 77%
    12:00 +3°C° 0.2 mm 5 mps 751 mmHg 72%
    13:00 +5°C° 0.2 mm 5 mps 751 mmHg 68%
    14:00 +5°C° 0 mm 5 mps 752 mmHg 68%
    15:00 +5°C° 0 mm 5 mps 752 mmHg 68%
    16:00 +5°C° 0 mm 5 mps 753 mmHg 68%
    17:00 +3°C° 0 mm 5 mps 754 mmHg 75%
    18:00 +3°C° 0 mm 4 mps 755 mmHg 82%
    19:00 +1°C° 0 mm 4 mps 755 mmHg 89%
    20:00 +2°C° 0 mm 3 mps 756 mmHg 90%
    21:00 +1°C° 0 mm 3 mps 757 mmHg 90%
    22:00 +1°C° 0 mm 3 mps 758 mmHg 90%
    23:00 +1°C° 0 mm 2 mps 759 mmHg 90%

    Day after tomorrow, 26 March, Tuesday

    Time Temperature Precipitation Wind Pressure Humidity
    00:00 -1°C° 0 mm 2 mps 759 mmHg 89%
    01:00 +1°C° 0 mm 1 mps 760 mmHg 88%
    02:00 +1°C° 0 mm 1 mps 760 mmHg 86%
    03:00 -2°C° 0 mm 2 mps 760 mmHg 83%
    04:00 -2°C° 0 mm 2 mps 760 mmHg 81%
    05:00 -1°C° 0 mm 3 mps 760 mmHg 84%
    06:00 -1°C° 0 mm 4 mps 760 mmHg 87%
    07:00 0°C° 0 mm 5 mps 760 mmHg 90%
    08:00 +1°C° 0 mm 5 mps 759 mmHg 85%
    09:00 +2°C° 0 mm 6 mps 759 mmHg 80%
    10:00 +3°C° 0 mm 7 mps 759 mmHg 75%
    11:00 +3°C° 0.1 mm 6 mps 759 mmHg 73%
    12:00 +3°C° 0.1 mm 6 mps 760 mmHg 71%
    13:00 +4°C° 0.1 mm 6 mps 760 mmHg 70%
    14:00 +3°C° 0 mm 5 mps 760 mmHg 69%
    15:00 +4°C° 0 mm 4 mps 760 mmHg 68%
    16:00 +4°C° 0 mm 3 mps 761 mmHg 68%
    17:00 +3°C° 0 mm 3 mps 761 mmHg 73%
    18:00 +3°C° 0 mm 2 mps 761 mmHg 77%
    19:00 +3°C° 0 mm 1 mps 761 mmHg 82%
    20:00 +3°C° 0 mm 1 mps 761 mmHg 84%
    21:00 +2°C° 0 mm 1 mps 762 mmHg 85%
    22:00 +1°C° 0 mm 2 mps 762 mmHg 87%
    23:00 +1°C° 0 mm 2 mps 762 mmHg 87%

    27 March, Wednesday

    Time Temperature Precipitation Wind Pressure Humidity
    00:00 +1°C° 0 mm 2 mps 762 mmHg 88%
    01:00 0°C° 0 mm 3 mps 762 mmHg 88%
    02:00 0°C° 0 mm 3 mps 762 mmHg 87%
    03:00 0°C° 0 mm 3 mps 761 mmHg 86%
    04:00 +1°C° 0 mm 3 mps 761 mmHg 85%
    05:00 0°C° 0.1 mm 4 mps 761 mmHg 87%
    06:00 +1°C° 0.1 mm 4 mps 761 mmHg 90%
    07:00 +3°C° 0.1 mm 4 mps 761 mmHg 93%
    08:00 +3°C° 0.1 mm 4 mps 761 mmHg 90%
    09:00 +3°C° 0.1 mm 5 mps 761 mmHg 88%
    10:00 +3°C° 0.1 mm 5 mps 762 mmHg 86%
    11:00 +3°C° 0.1 mm 5 mps 762 mmHg 87%
    12:00 +4°C° 0.1 mm 4 mps 762 mmHg 87%
    13:00 +4°C° 0.1 mm 4 mps 762 mmHg 88%
    14:00 +5°C° 0.1 mm 4 mps 762 mmHg 88%
    15:00 +5°C° 0.1 mm 3 mps 762 mmHg 89%
    16:00 +5°C° 0.1 mm 3 mps 762 mmHg 89%
    17:00 +6°C° 0 mm 2 mps 762 mmHg 91%
    18:00 +5°C° 0 mm 2 mps 763 mmHg 93%
    19:00 +5°C° 0 mm 1 mps 763 mmHg 95%
    20:00 +5°C° 0 mm 1 mps 763 mmHg 95%
    21:00 +4°C° 0 mm 1 mps 763 mmHg 95%
    22:00 +4°C° 0 mm 1 mps 764 mmHg 95%
    23:00 +4°C° 0 mm 1 mps 764 mmHg 95%

    28 March, Thursday

    Time Temperature Precipitation Wind Pressure Humidity
    00:00 +3°C° 0 mm 1 mps 764 mmHg 95%
    01:00 +3°C° 0 mm 1 mps 764 mmHg 94%
    02:00 +3°C° 0 mm 1 mps 764 mmHg 94%
    03:00 +3°C° 0 mm 1 mps 765 mmHg 94%
    04:00 +3°C° 0 mm 1 mps 765 mmHg 94%
    05:00 +3°C° 0 mm 1 mps 765 mmHg 94%
    06:00 +4°C° 0 mm 1 mps 765 mmHg 93%
    07:00 +4°C° 0 mm 1 mps 765 mmHg 93%
    08:00 +5°C° 0 mm 2 mps 766 mmHg 86%
    09:00 +7°C° 0 mm 2 mps 766 mmHg 79%
    10:00 +9°C° 0 mm 2 mps 766 mmHg 72%
    11:00 +10°C° 0 mm 2 mps 766 mmHg 68%
    12:00 +12°C° 0 mm 2 mps 766 mmHg 64%
    13:00 +12°C° 0 mm 3 mps 766 mmHg 60%
    14:00 +12°C° 0 mm 3 mps 766 mmHg 62%
    15:00 +12°C° 0 mm 3 mps 766 mmHg 64%
    16:00 +12°C° 0 mm 3 mps 765 mmHg 65%
    17:00 +10°C° 0 mm 3 mps 765 mmHg 74%
    18:00 +8°C° 0 mm 2 mps 765 mmHg 83%
    19:00 +6°C° 0 mm 2 mps 765 mmHg 91%
    20:00 +6°C° 0 mm 2 mps 766 mmHg 93%
    21:00 +6°C° 0 mm 2 mps 766 mmHg 94%
    22:00 +6°C° 0 mm 2 mps 766 mmHg 95%
    23:00 +5°C° 0 mm 2 mps 766 mmHg 96%

    29 March, Friday

    Time Temperature Precipitation Wind Pressure Humidity
    00:00 +5°C° 0 mm 2 mps 766 mmHg 96%
    01:00 +5°C° 0 mm 2 mps 766 mmHg 96%
    02:00 +5°C° 0 mm 2 mps 766 mmHg 97%
    03:00 +5°C° 0 mm 2 mps 766 mmHg 97%
    04:00 +5°C° 0 mm 2 mps 766 mmHg 98%
    05:00 +5°C° 0 mm 2 mps 766 mmHg 97%
    06:00 +6°C° 0 mm 2 mps 766 mmHg 95%
    07:00 +6°C° 0 mm 2 mps 766 mmHg 94%
    08:00 +8°C° 0 mm 2 mps 766 mmHg 87%
    09:00 +9°C° 0 mm 3 mps 766 mmHg 80%
    10:00 +11°C° 0 mm 3 mps 766 mmHg 73%
    11:00 +12°C° 0 mm 3 mps 766 mmHg 70%
    12:00 +13°C° 0 mm 3 mps 766 mmHg 67%
    13:00 +13°C° 0 mm 4 mps 766 mmHg 64%
    14:00 +13°C° 0 mm 3 mps 766 mmHg 65%
    15:00 +12°C° 0 mm 3 mps 765 mmHg 65%
    16:00 +12°C° 0 mm 3 mps 765 mmHg 66%
    17:00 +10°C° 0 mm 2 mps 765 mmHg 73%
    18:00 +9°C° 0 mm 2 mps 765 mmHg 81%
    19:00 +8°C° 0 mm 1 mps 765 mmHg 88%
    20:00 +8°C° 0 mm 1 mps 765 mmHg 89%
    21:00 +8°C° 0 mm 1 mps 765 mmHg 90%
    22:00 +7°C° 0 mm 1 mps 765 mmHg 92%
    23:00 +7°C° 0 mm 1 mps 765 mmHg 91%
    Show more